Regional Weather Roundup
Issued by NWS Charleston, SC

Current Version | Previous Version | Graphics & Text | Print | Product List | Glossary On
Versions: 1 2 3 4 5 6 7 8 9 10 11 12 13 14 15 16 17 18 19 20 21 22 23 24 25 26 27 28 29 30 31 32 33 34 35 36 37 38 39 40 41 42 43 44 45 46 47 48 49 50
000
ASUS42 KCHS 010913
RWRCHS

REGIONAL WEATHER ROUNDUP
NATIONAL WEATHER SERVICE CHARLESTON SC
500 AM EDT SUN MAY 01 2016

NOTE: "FAIR" INDICATES FEW OR NO CLOUDS BELOW 12,000 FEET WITH NO
SIGNIFICANT WEATHER AND/OR OBSTRUCTIONS TO VISIBILITY.

NOT ALL STATIONS ARE QUALITY CONTROLLED. USE DATA WITH CAUTION...
ESPECIALLY DEWPOINT OBSERVATIONS.

SCZ027-030-031-034>040-042>050-011000-
...SOUTHEAST SOUTH CAROLINA...

CITY           SKY/WX    TMP DP  RH WIND       PRES   REMARKS
N CHARLESTON   MOCLDY    73  65  75 SE14      30.03F
WATERFRONT PRK   N/A     73  69  87 SE10      30.03S
MOUNT PLEASANT FAIR      73  66  78 CALM      30.05F
JOHNS ISLAND   PTSUNNY   73  68  83 SE8       30.05F
PINOPOLIS        N/A     70  66  88 CALM      29.96F
MONCKS CORNER  FAIR      66  63  88 SE3       30.04F
SUMMERVILLE    FAIR      72  70  94 CALM      30.04F
BEAUFORT MCAS  CLOUDY    76  70  82 SE9G17    30.02F
BEAUFORT ARPT  PTSUNNY   73  68  83 S8        30.02F
HILTON HEAD IS CLOUDY    75  72  88 SE6       30.03F
WALTERBORO     CLOUDY    72  72 100 E5        30.03S
ALLENDALE      CLOUDY    72  68  88 E5        30.00F

...SOUTHERN MIDLANDS AND PEE DEE...

CITY           SKY/WX    TMP DP  RH WIND       PRES   REMARKS
GEORGETOWN     FAIR      68  64  88 SE7       30.08F
KINGSTREE      FAIR      66  64  94 E6        30.05F
ORANGEBURG     CLOUDY    70  67  90 SE6       30.03S
BARNWELL       CLOUDY    73  73 100 SE7       30.02S
AIKEN          CLOUDY    70  66  88 SE8       30.05S
MANNING        NOT AVBL
COLUMBIA       CLOUDY    72  66  81 SE9       30.01F
SUMTER         CLOUDY    68  65  88 E7        30.02F
FLORENCE       CLOUDY    66  62  87 E8        30.07F
MYRTLE BEACH   CLOUDY    72  63  73 S10       30.10F
N MYRTLE BEACH MOCLDY    71  66  84 S9        30.08S

$$

GAZ063-065-086>088-099>101-113>116-118-119-134>141-150-011000-
...SOUTHEAST GEORGIA...

CITY           SKY/WX    TMP DP  RH WIND       PRES   REMARKS
SAVANNAH ARPT  CLOUDY    74  71  91 SE8       30.01F
HUNTER AAF     CLOUDY    75  75 100 SE8       29.98F
FORT STEWART   CLOUDY    73  70  89 SE7       29.98F
STATESBORO     CLOUDY    75  74  96 S7        30.00S
SYLVANIA       PTSUNNY   73  72  98 CALM      30.02R
CLAXTON        FAIR      73  72  96 SE3       30.00S

...CSRA...CENTRAL AND FAR SOUTHEAST GEORGIA...

CITY           SKY/WX    TMP DP  RH WIND       PRES   REMARKS
THOMSON        CLOUDY    74  71  91 SE5       30.04R
AUGUSTA-BUSH   CLOUDY    72  68  87 SE6       30.00R
AUGUSTA-DANIEL CLOUDY    73  67  81 SE7       30.01S
SWAINSBORO     FAIR      72  70  94 S5        30.01S
VIDALIA        PTCLDY    72  68  88 S6        30.00R
EASTMAN        FAIR     N/A N/A N/A SE3       30.02R
HAZLEHURST     FAIR      73  73 100 SE6       29.97S
ALMA           CLEAR     71  70  96 SE5       29.98S
WAYCROSS       CLOUDY    72  70  93 S8        29.98F
JESUP          PTSUNNY   75  73  94 SE3       30.00F
BAXLEY         FAIR      73  72  94 SE5       29.98F
BRUNSWICK      CLOUDY    77  73  88 SE8       30.01F
SAINT SIMONS   CLOUDY    73  73 100 SE6       30.01F

$$

SCZ027-028-034-036>038-045-046-048>050-GAZ119-141-011000-
...LAKE AND SUPPLEMENTAL COASTAL OBSERVATIONS...

STATION/POSITION TIME  TEMP    WIND        PRES    WAVE   SWELL
                       AIR SEA DIR/SP/G            HT/PER HT/PER/DIR
                 (UTC) (F)     (DEG/KT/KT) (MB)    (FT/S) (FT/S/D)
WINYAH BAY       NOT AVBL
LAKE MURRAY      0800   71     100/  7/ 12 1016.3F
ACE BASIN NERRS  NOT AVBL
FORT PULASKI     0800   74 73  130/  6/ 10 1017.0F
SAPELO ISLAND    0800   74     150/  5     1016.0F

$$

ANZ835-935-AMZ111-154-330-350-352-354-370-450-454-472-011000-
...C-MAN AND BUOY OBSERVATIONS...

STATION/POSITION TIME  TEMP    WIND        PRES    WAVE   SWELL
                       AIR SEA DIR/SP/G            HT/PER HT/PER/DIR
                 (UTC) (F)     (DEG/KT/KT) (MB)    (FT/S) (FT/S/D)
BUOY 41004       0850   74 73  140/ 16/ 17 1017.5R   5/ 5   2/ 9
BUOY 41008       NOT AVBL
FOLLY BEACH CMAN 0900   73     140/ 14/ 16 1017.5F
CAPERS NEARSHORE 0808   73 71  150/ 12/ 16 1017.6R
FRIPP NEARSHORE  0808   74 73  140/ 12/ 16 1016.3F


STATION/POSITION TIME  TEMP    WIND        PRES    WAVE   SWELL
                       AIR SEA DIR/SP/G            HT/PER HT/PER/DIR
                 (UTC) (F)     (DEG/KT/KT) (MB)    (FT/S) (FT/S/D)
5E ST. MARYS GA  0821      74                N/A     2/11
FRYING PAN BUOY  0800   72 70  140/ 14/ 17 1018.5R
BUOY 41025       0850   72 73  160/ 12/ 14 1019.3R   5/10   5/ 60/10
CAPE LOOKOUT NC  0800   65      60/ 11/ 11 1018.8F
BUOY 41002       0850   71     100/ 14/ 16 1019.3F   6/ 9   5/ 20/ 9
BUOY 41010       0820   77 77  130/  8/  8 1017.5R
ST AUGUSTINE FL  0900   71 70  190/  3/  3 1017.1F


$$




USA.gov is the U.S. government's official web portal to all federal, state and local government web resources and services.